Find Starlink 6334

NORAD ID: 57238 Int'l Des: 2023-094 Owner: SPXS Country: US Constellation: starlink operational
LEOCIRCULAR

当前视图

正在加载3D地球...

About Starlink 6334

Starlink 6334 (NORAD 57238) is a starlink constellation satellite (v1.5) launched Jul 7, 2023 by SPXS of US. It operates in LEO, CIRCULAR orbit with a mass of 305.00 kg.

关于 Starlink 6334

正在加载描述...

即将过境

Passes for default location (London). Set your location on the main map for personalized predictions.

高度历史

Loading altitude history...

两行轨道根数

1 57238U 23094W 26169.36256288 .00001528 00000-0 65024-4 0 9994
2 57238 43.0010 171.5921 0001120 267.3671 92.7053 15.27584278162630
Epoch: Jun 18, 2026 • Age: 12 hours

当前状态

高度 485.3 km
速度 7.62 km/s
星下点 -13.63°S, 148.32°E
发射日期 Jul 7, 2023
运行时间 2.9 years
类型 internet

技术详情

分类 Payload
质量 305.00 kg
干质量 290.00 kg
总质量 305.00 kg
长度 0.20 m
直径 2.80 m
跨度 9.00 m
形状 Box + pan
制造商 SPXS
平台类型 Starlink
阶段状态 In Orbit
所有者/国家 SPXS/US

Most Searched